Погода в Хал-Килое

Россия / Чеченская Республика     42°49′30″N   45°47′19″E
темп.,
°C
ветер,
м/с
пор.,
м/с
влажн.,
%
обл.,
%
осадки,
мм/ч
давл.,
гПа
погр.,
м
22 января, сб
сб2200:00−9ююв56660 0.0 102187
03:00−8ююв56694 0.0 102079
06:00−7ю566711 0.0 101878
09:00−3ююв576330 0.0 1015164
12:00+3ююв45545 0.0 1010457
15:00+3ююв246284 0.0 1009307
18:00−3ююв3473100 0.0 101459
21:00−3ю4665100 0.0 101374
23 января, вс
вс2300:00−3ю4662100 0.0 101279
03:00−3ю5657100 0.0 101180
06:00−4ю4657100 0.0 101171
09:00−1ю4653100 0.0 1010124
12:00+4ю4645100 0.0 1006582
15:00+3ю25540 0.0 1006380
18:00−4ю566037 0.0 101293
21:00−3ю5753100 0.0 1011100
24 января, пн
пн2400:00−3ю456429 0.0 101170
03:00−3ю45624 0.0 101262
06:00−3ю45600 0.0 101357
09:00+1ю345811 0.0 1012100
12:00+5ююз134714 0.0 1010724
15:00+3зюз235367 0.0 1013713
18:00−6ююз118639 0.0 102273
21:00−6ю32702 0.0 102335
25 января, вт
вт2500:00−6ю33590 0.0 102337
03:00−6ю32590 0.0 102334
06:00−6ю32650 0.0 102331
09:00−3ююз125993 0.0 1022147
12:00−1зсз155329 0.1 10211377
15:00−3с116843 0.2 1023391
18:00−7ююв22846 0.0 102732
21:00−7ююв34601 0.0 102559
26 января, ср
ср2600:00−6ююв45540 0.0 102379
03:00−6ю46490 0.0 102178
06:00−6ю56500 0.0 101992
09:00−2ю354951 0.0 1016152
12:00+2ю244254 0.0 1011541
15:00−1ссз036017 0.0 1012398
18:00−6ююв128148 0.0 1016118
21:00−6ююв227178 0.0 101429